Bankhead Lake Weather Center

Moon Phase Calendar



Bankhead Lake Water Level
Online Cameras

 


      

Current Conditions in Rock Creek
5/16/2022 2:00:01 PM

84°F
Feels Like 84
Clouds
Humidity
42%
Pressure
29.88"
Wind
7.7 mph (NNW)
Dew Point
59°F
UV Index
8/10 (Very High)
Visibility
6 mi

Hourly Forecast

Date & Time Mon, May 16
2:00 PM
Mon, May 16
3:00 PM
Mon, May 16
4:00 PM
Mon, May 16
5:00 PM
Mon, May 16
6:00 PM
Mon, May 16
7:00 PM
Mon, May 16
8:00 PM
Mon, May 16
9:00 PM
Mon, May 16
10:00 PM
Mon, May 16
11:00 PM
Tue, May 17
12:00 AM
Tue, May 17
1:00 AM
Tue, May 17
2:00 AM
Tue, May 17
3:00 AM
Tue, May 17
4:00 AM
Tue, May 17
5:00 AM
Tue, May 17
6:00 AM
Tue, May 17
7:00 AM
Tue, May 17
8:00 AM
Tue, May 17
9:00 AM
Tue, May 17
10:00 AM
Tue, May 17
11:00 AM
Tue, May 17
12:00 PM
Tue, May 17
1:00 PM
Tue, May 17
2:00 PM
Tue, May 17
3:00 PM
Tue, May 17
4:00 PM
Tue, May 17
5:00 PM
Tue, May 17
6:00 PM
Tue, May 17
7:00 PM
Tue, May 17
8:00 PM
Tue, May 17
9:00 PM
Tue, May 17
10:00 PM
Tue, May 17
11:00 PM
Wed, May 18
12:00 AM
Wed, May 18
1:00 AM
Wed, May 18
2:00 AM
Wed, May 18
3:00 AM
Wed, May 18
4:00 AM
Wed, May 18
5:00 AM
Wed, May 18
6:00 AM
Wed, May 18
7:00 AM
Wed, May 18
8:00 AM
Wed, May 18
9:00 AM
Wed, May 18
10:00 AM
Wed, May 18
11:00 AM
Wed, May 18
12:00 PM
Wed, May 18
1:00 PM
Condition
Clouds

Clouds

Clouds

Clouds

Clouds

Clouds

Clouds

Clouds

Clouds

Clouds

Clouds

Clouds

Clear

Clear

Clear

Clear

Clear

Clear

Clear

Clear

Clear

Clear

Clear

Clear

Clouds

Clouds

Clouds

Clouds

Clouds

Clouds

Clouds

Clouds

Clouds

Clouds

Clouds

Clouds

Clouds

Clouds

Clouds

Clouds

Clouds

Clouds

Clouds

Clouds

Clear

Clouds

Clouds

Clouds
Temperature 84°F85°F85°F84°F81°F75°F70°F67°F64°F62°F60°F59°F58°F57°F56°F55°F55°F59°F66°F72°F76°F79°F82°F84°F85°F86°F86°F84°F81°F73°F68°F66°F64°F63°F64°F64°F62°F61°F61°F61°F60°F64°F70°F77°F81°F84°F87°F89°F
Feels Like 84°F84°F84°F84°F81°F75°F70°F66°F64°F61°F59°F58°F57°F56°F55°F54°F54°F58°F65°F71°F75°F79°F80°F82°F83°F83°F83°F82°F81°F73°F68°F66°F64°F63°F63°F63°F62°F60°F60°F61°F60°F63°F70°F76°F81°F83°F86°F88°F
Cloudiness 100%100%100%99%100%99%54%29%43%33%26%22%0%0%0%0%0%0%0%0%0%0%0%8%97%60%42%46%55%52%21%54%45%51%61%67%100%91%94%95%86%72%17%11%10%23%31%42%
Visibility 6 mi6 mi6 mi6 mi6 mi6 mi6 mi6 mi6 mi6 mi6 mi6 mi6 mi6 mi6 mi6 mi6 mi6 mi6 mi6 mi6 mi6 mi6 mi6 mi6 mi6 mi6 mi6 mi6 mi6 mi6 mi6 mi6 mi6 mi6 mi6 mi6 mi6 mi6 mi6 mi6 mi6 mi6 mi6 mi6 mi6 mi6 mi6 mi
Precipitation 0%0%0%0%0%0%0%0%0%0%0%0%0%0%0%0%0%0%0%0%0%0%0%0%0%0%0%0%0%0%0%0%0%0%0%0%0%0%0%0%0%0%0%0%0%0%0%0%
Humidity 42%42%43%43%50%61%65%71%75%76%79%80%79%77%78%79%79%74%59%50%42%36%31%29%27%27%28%31%43%61%65%67%70%71%69%68%71%73%73%73%74%72%57%46%40%38%38%39%
Dew Point 59°F59°F60°F59°F60°F60°F58°F57°F55°F54°F53°F52°F51°F50°F49°F48°F48°F50°F51°F51°F51°F49°F48°F48°F48°F48°F49°F50°F56°F59°F56°F55°F54°F53°F53°F53°F52°F52°F52°F52°F52°F54°F54°F54°F54°F56°F58°F60°F
Pressure 29.88"29.88"29.88"29.88"29.88"29.91"29.91"29.97"29.97"29.97"30"30"30"29.97"30"30.03"30.06"30.06"30.06"30.06"30.09"30.06"30.03"30.03"30"30"30"29.97"30"30"30"29.97"30.03"30.03"30"30"30"30"30"30"30.03"30.03"30"30"30.03"30"30"29.97"
Wind Speed 7.7 mph10.5 mph8.5 mph9.4 mph9.2 mph8.4 mph7 mph5.3 mph5.1 mph5 mph5 mph4.5 mph4.5 mph4.8 mph4.7 mph4.5 mph4.5 mph4.3 mph5.7 mph5.7 mph5.4 mph5.8 mph5.1 mph4.7 mph4.6 mph5.1 mph6.4 mph6.5 mph5.8 mph5.1 mph5.8 mph5.8 mph3.7 mph2.5 mph3.8 mph3 mph1.5 mph3 mph3.2 mph4.9 mph5 mph4.6 mph7.1 mph7.2 mph7.5 mph7.9 mph8.5 mph7.8 mph
Wind
Direction
338°
NNW
350°
N
351°
N

N
23°
NNE
32°
NNE
29°
NNE
22°
NNE
20°
NNE
24°
NNE
28°
NNE
37°
NE
45°
NE
43°
NE
32°
NNE
35°
NE
41°
NE
70°
ENE
50°
NE
44°
NE
24°
NNE
51°
NE
41°
NE
35°
NE
29°
NNE
351°
N
349°
N

N
28°
NNE
43°
NE
64°
ENE
86°
E
53°
NE
56°
NE
109°
ESE
142°
SE
155°
SSE
122°
ESE
135°
SE
143°
SE
155°
SSE
159°
SSE
168°
SSE
183°
S
196°
SSW
202°
SSW
207°
SSW
218°
SW

Daily Forecast

Date High Low Precip. Humidity
Today
May 16

Clouds
85 °F
62 °F
80%
45%
Tuesday
May 17

Clear
86 °F
55 °F
0%
31%
Wednesday
May 18

Clouds
90 °F
60 °F
12%
39%
Thursday
May 19

Clouds
94 °F
67 °F
0%
36%
Friday
May 20

Clouds
93 °F
68 °F
0%
38%
Saturday
May 21

Rain
93 °F
67 °F
96%
38%
Sunday
May 22

Rain
82 °F
59 °F
100%
66%
Monday
May 23

Rain
86 °F
58 °F
76%
52%
Tuesday
May 24

Rain
78 °F
64 °F
92%
67%
Wednesday
May 25

Rain
86 °F
66 °F
80%
54%
Thursday
May 26

Clear
91 °F
66 °F
0%
42%
Friday
May 27

Rain
90 °F
71 °F
56%
47%
Saturday
May 28

Clear
78 °F
60 °F
0%
34%
Sunday
May 29

Clear
75 °F
51 °F
0%
30%
Monday
May 30

Clouds
85 °F
51 °F
0%
30%
Tuesday
May 31

Clear
89 °F
59 °F
0%
29%

Temperature 8-14 Day Outlook



Precipitation 8-14 Day Outlook




Quick Links
Bankhead Lake News
Bankhead Lake Photos
Bankhead Lake Videos




About Us
Contact Us
Site Map
Search Site
Advertise With Us
   
www.BankheadLake.info
THE BANKHEAD LAKE WEBSITE

Copyright 2022, Lakes Online
Privacy    |    Legal